EW9304 Weather Reports


time (UTC)temp
F
wind
direction
speed
knots
gust
knots
rain 1hr
in
rain 24hr
in
rain mn
in
humidity
%
barometer
mb
20260507170002 64 300 0.0 0.0 0.00 0.02 0.00 42 997.6
20260507164559 64 158 0.0 0.0 0.00 0.02 0.00 39 997.9
20260507163117 64 114 0.0 0.0 0.00 0.02 0.00 43 998.1
20260507161556 64 122 0.0 0.0 0.00 0.02 0.00 42 998.3
20260507160056 64 158 0.0 0.0 0.00 0.02 0.00 40 998.4
20260507154552 63 25 0.0 0.0 0.00 0.02 0.00 42 998.5
20260507153049 62 139 0.0 0.0 0.00 0.02 0.00 46 998.5
20260507151548 61 338 0.0 0.0 0.00 0.02 0.00 49 998.8
20260507150046 61 265 0.0 0.0 0.00 0.02 0.00 43 999.3
20260507144610 60 19 0.0 0.0 0.00 0.04 0.00 52 999.5
20260507143048 61 279 0.0 0.0 0.00 0.04 0.00 47 999.6
20260507141548 59 204 0.0 0.0 0.00 0.04 0.00 53 999.7
20260507140041 58 264 0.0 2.6 0.00 0.04 0.00 50 999.8
20260507134544 59 277 0.0 0.0 0.00 0.06 0.00 51 1000.1
20260507133038 59 198 0.0 0.0 0.00 0.06 0.00 53 1000.2
20260507131535 56 2 0.0 0.0 0.00 0.06 0.00 61 1000.1
20260507130034 54 162 0.0 0.0 0.00 0.06 0.00 60 1000.3
20260507124532 54 277 0.0 0.0 0.00 0.09 0.00 60 1000.4
20260507123030 54 295 0.0 0.0 0.00 0.09 0.00 63 1000.3
20260507121530 53 281 0.0 0.0 0.00 0.09 0.00 62 1000.1
20260507120029 53 308 0.0 0.0 0.00 0.09 0.00 64 1000.1
20260507114528 53 274 0.0 0.0 0.00 0.12 0.00 63 1000.1
20260507113028 52 274 0.0 0.0 0.00 0.12 0.00 64 1000.0
20260507111538 52 274 0.0 0.0 0.00 0.12 0.00 65 1000.1
20260507110025 51 274 0.0 0.0 0.00 0.12 0.00 64 999.8
20260507104523 51 174 0.0 0.0 0.00 0.12 0.00 64 999.6
20260507103021 51 261 0.0 0.0 0.00 0.12 0.00 65 999.3
20260507101521 52 261 0.0 0.0 0.00 0.12 0.00 65 999.4
20260507100020 52 293 0.0 0.0 0.00 0.12 0.00 64 999.0
20260507094517 52 132 0.0 0.0 0.00 0.12 0.00 66 998.8
20260507093021 52 219 0.0 0.0 0.00 0.12 0.00 68 998.8
20260507091525 52 219 0.0 0.0 0.00 0.12 0.00 66 998.9
20260507090017 53 214 0.0 0.0 0.00 0.12 0.00 67 999.0
20260507084517 53 59 0.0 0.0 0.00 0.12 0.00 69 998.9
20260507083009 53 109 0.0 0.0 0.00 0.12 0.00 74 998.8
20260507081518 53 131 0.0 0.0 0.00 0.12 0.00 75 998.7
20260507080007 54 124 0.0 0.0 0.00 0.12 0.00 74 998.4
20260507074506 54 197 0.0 0.0 0.00 0.12 0.00 75 998.0
20260507073007 54 5 0.0 0.9 0.00 0.12 0.00 77 998.0
20260507071503 54 141 0.0 0.0 0.00 0.12 0.00 79 998.0
20260507070004 54 141 0.0 0.0 0.00 0.12 0.00 80 998.4
20260507064602 54 141 0.0 0.0 0.00 0.12 0.00 80 998.6
20260507064505 54 141 0.0 0.0 0.00 0.12 0.00 80 998.5
20260507063058 54 141 0.0 0.0 0.00 0.12 0.00 80 998.4
20260507061604 55 141 0.0 0.0 0.00 0.12 0.00 77 998.6
20260507060104 55 141 0.0 0.0 0.00 0.12 0.00 77 998.9
20260507054602 55 141 0.0 0.0 0.00 0.12 0.00 78 998.6
20260507053056 55 290 0.0 0.0 0.00 0.12 0.00 80 998.4
20260507051551 55 290 0.0 0.0 0.00 0.12 0.00 81 998.4
20260507050050 55 290 0.0 0.0 0.00 0.12 0.00 81 998.3
20260507044558 56 291 0.0 0.0 0.00 0.12 0.00 81 998.3
20260507043047 56 154 0.0 0.0 0.00 0.12 0.00 81 998.0
20260507041545 56 141 0.0 0.0 0.00 0.12 0.00 82 998.2
20260507040042 56 224 0.0 0.0 0.00 0.12 0.00 82 998.7
20260507034542 56 224 0.0 0.0 0.00 0.12 0.12 81 998.1
20260507033038 56 130 0.0 0.0 0.00 0.12 0.12 81 998.0
20260507031538 56 266 0.0 0.0 0.00 0.12 0.12 81 998.1
20260507030035 57 268 0.0 0.0 0.00 0.12 0.12 81 998.3
20260507024535 57 233 0.0 0.0 0.00 0.12 0.12 79 998.0
20260507023029 58 286 0.0 0.0 0.00 0.12 0.12 78 997.8
20260507021530 58 296 0.0 0.0 0.00 0.12 0.12 78 997.7
20260507020035 59 262 0.0 0.0 0.00 0.12 0.12 78 997.7
20260507014524 59 131 0.0 0.0 0.00 0.12 0.12 77 997.6
20260507013022 59 221 0.0 0.0 0.00 0.12 0.12 77 997.6
20260507011521 59 212 0.0 0.0 0.00 0.12 0.12 78 997.2
20260507010025 60 302 0.0 0.0 0.00 0.12 0.12 78 997.2
20260507004516 61 9 0.0 0.0 0.00 0.12 0.12 78 997.7
20260507003021 61 221 0.0 0.0 0.00 0.12 0.12 78 997.4
20260507001521 61 252 0.0 0.0 0.00 0.12 0.12 82 997.1
20260507000013 62 178 0.0 0.0 0.00 0.12 0.12 83 996.9
20260506234510 63 249 0.0 0.0 0.00 0.12 0.12 83 996.8
20260506233009 63 344 0.0 0.0 0.00 0.12 0.12 83 995.9
20260506231512 64 285 0.0 0.0 0.00 0.12 0.12 85 995.8
20260506230006 64 303 0.0 0.0 0.00 0.12 0.12 84 995.7
20260506224504 65 281 0.0 0.0 0.00 0.12 0.12 83 995.7
20260506223005 66 288 0.0 0.0 0.00 0.12 0.12 83 995.6
20260506221505 67 195 0.0 0.0 0.00 0.12 0.12 84 995.2
20260506220004 67 281 0.0 0.0 0.00 0.12 0.12 83 995.3
20260506214505 67 9 0.0 0.0 0.00 0.12 0.12 86 994.9
20260506213005 67 8 0.0 1.7 0.00 0.12 0.12 86 995.0
20260506211502 67 308 0.0 0.0 0.00 0.12 0.12 87 994.8
20260506210001 67 197 0.0 0.0 0.00 0.12 0.12 86 994.2
20260506204501 67 106 0.0 0.0 0.00 0.12 0.12 86 994.2
20260506203100 66 167 0.0 0.0 0.00 0.12 0.12 87 994.1
20260506201600 66 167 0.0 0.0 0.00 0.12 0.12 89 994.1
20260506200100 65 116 0.0 0.0 0.00 0.12 0.12 89 994.0
20260506194606 65 111 0.0 0.0 0.00 0.12 0.12 89 994.3
20260506193100 66 124 0.0 0.0 0.00 0.12 0.12 88 994.3
20260506191558 66 115 0.0 0.0 0.01 0.12 0.12 87 994.4
20260506190059 67 117 0.0 0.0 0.01 0.12 0.12 88 994.4
20260506184557 67 139 0.0 0.0 0.01 0.12 0.12 85 994.5
20260506183105 67 140 0.0 0.0 0.01 0.11 0.11 85 994.6
20260506181559 66 120 0.0 0.0 0.01 0.11 0.11 86 994.8
20260506180056 66 269 0.0 0.0 0.01 0.11 0.11 85 994.8
20260506174555 67 172 0.0 0.0 0.01 0.11 0.11 83 994.6
20260506173054 68 200 0.0 0.0 0.00 0.10 0.10 78 994.7
20260506171558 69 124 0.0 0.0 0.00 0.10 0.10 76 994.4